{"data":{"norad_id":63117,"epoch":"2026-09-15T13:48:36.388224Z","epoch_age_seconds":587757,"freshness":"STALE","line1":"1 63117U 25039P   26258.57542116  .15228672  90194-5  36526-2 0  9996","line2":"2 63117  42.9685 314.6341 0014693  98.3898 261.8656 16.28166397 87844","mean_motion":16.28166397,"eccentricity":0.0014693,"inclination_deg":42.9685,"raan_deg":314.6341,"arg_perigee_deg":98.3898,"mean_anomaly_deg":261.8656,"bstar":0.0036526,"rev_number":8784,"period_min":88.443048735884,"perigee_km":187.81048678578,"apogee_km":207.13357147879,"semimajor_km":6575.6090291323,"source":"CELESTRAK","updated_at":"2026-09-16T09:01:31.017221Z"}}